OH2EGI-2 Weather Reports


time (UTC)temp
C
wind
direction
speed
KPH
gust
KPH
rain 1hr
cm
rain 24hr
cm
rain mn
cm
humidity
%
barometer
mb
20260506105132 20 315 0.0 0.0 0.00 0.00 0.00 22 1005.4
20260506104632 18 315 0.0 0.0 0.00 0.00 0.00 24 1005.5
20260506104132 17 270 0.0 9.7 0.00 0.00 0.00 24 1005.4
20260506103632 20 270 0.0 1.6 0.00 0.00 0.00 23 1005.1
20260506103132 20 315 0.0 0.0 0.00 0.00 0.00 24 1005.1
20260506102632 19 315 0.0 0.0 0.00 0.00 0.00 24 1005.1
20260506102132 18 247 0.0 9.7 0.00 0.00 0.00 24 1005.2
20260506101632 18 337 0.0 0.0 0.00 0.00 0.00 25 1005.1
20260506101132 17 315 0.0 6.4 0.00 0.00 0.00 26 1005.1
20260506100632 17 270 3.2 3.2 0.00 0.00 0.00 26 1005.1
20260506100132 16 315 0.0 9.7 0.00 0.00 0.00 27 1005.2
20260506095632 15 270 0.0 3.2 0.00 0.00 0.00 28 1005.2
20260506095132 14 270 0.0 0.0 0.00 0.00 0.00 30 1005.3
20260506094632 13 292 0.0 0.0 0.00 0.00 0.00 29 1005.3
20260506094132 15 270 0.0 0.0 0.00 0.00 0.00 29 1005.2
20260506093632 15 270 0.0 0.0 0.00 0.00 0.00 29 1005.0
20260506093132 15 270 0.0 6.4 0.00 0.00 0.00 30 1004.9
20260506092632 13 247 0.0 0.0 0.00 0.00 0.00 32 1004.9
20260506092132 12 315 0.0 0.0 0.00 0.00 0.00 32 1004.9
20260506091632 13 270 0.0 0.0 0.00 0.00 0.00 32 1004.9
20260506091132 12 270 0.0 6.4 0.00 0.00 0.00 32 1004.8
20260506090632 12 225 0.0 0.0 0.00 0.00 0.00 33 1004.8
20260506090132 12 292 0.0 0.0 0.00 0.00 0.00 32 1004.9
20260506085632 12 270 0.0 0.0 0.00 0.00 0.00 32 1004.8
20260506085132 12 292 0.0 0.0 0.00 0.00 0.00 33 1004.8
20260506084632 12 270 0.0 0.0 0.00 0.00 0.00 33 1004.9
20260506084132 12 315 0.0 0.0 0.00 0.00 0.00 33 1004.8
20260506083632 13 292 0.0 3.2 0.00 0.00 0.00 32 1004.9
20260506083132 14 292 0.0 0.0 0.00 0.00 0.00 33 1004.8
20260506082632 13 292 0.0 6.4 0.00 0.00 0.00 33 1004.8
20260506082132 12 247 0.0 6.4 0.00 0.00 0.00 33 1004.8
20260506081632 12 270 0.0 0.0 0.00 0.00 0.00 34 1004.8
20260506081132 13 270 0.0 0.0 0.00 0.00 0.00 33 1004.8
20260506080632 14 247 0.0 0.0 0.00 0.00 0.00 33 1004.7
20260506080132 14 202 0.0 4.8 0.00 0.00 0.00 33 1004.8
20260506073132 14 337 0.0 0.0 0.00 0.00 0.00 34 1004.6
20260506072632 14 292 0.0 1.6 0.00 0.00 0.00 36 1004.4
20260506072132 14 315 1.6 1.6 0.00 0.00 0.00 35 1004.4
20260506071632 14 292 0.0 8.0 0.00 0.00 0.00 35 1004.4
20260506071132 15 292 0.0 4.8 0.00 0.00 0.00 36 1004.5
20260506070632 15 247 4.8 4.8 0.00 0.00 0.00 35 1004.3
20260506070132 15 292 0.0 4.8 0.00 0.00 0.00 35 1004.4
20260506062132 15 292 0.0 0.0 0.00 0.00 0.00 40 1004.2
20260506061632 15 337 0.0 6.4 0.00 0.00 0.00 42 1004.2
20260506061132 15 315 0.0 4.8 0.00 0.00 0.00 43 1004.2
20260506060632 15 270 0.0 0.0 0.00 0.00 0.00 44 1004.1
20260506060132 15 292 0.0 0.0 0.00 0.00 0.00 46 1004.0
20260506051133 5 315 0.0 0.0 0.00 0.00 0.00 71 1003.3
20260506050632 5 315 0.0 0.0 0.00 0.00 0.00 72 1003.1
20260506050132 4 337 0.0 0.0 0.00 0.00 0.00 72 1003.5
20260506045133 3 337 0.0 0.0 0.00 0.00 0.00 73 1003.2
20260506044633 3 292 0.0 0.0 0.00 0.00 0.00 74 1003.2
20260506044133 3 292 0.0 0.0 0.00 0.00 0.00 74 1003.1
20260506043633 3 292 0.0 0.0 0.00 0.00 0.00 75 1003.1
20260506043133 2 292 0.0 0.0 0.00 0.00 0.00 75 1003.1
20260506042633 2 292 0.0 0.0 0.00 0.00 0.00 75 1003.0
20260506042133 2 247 0.0 0.0 0.00 0.00 0.00 76 1003.0
20260506041633 2 270 0.0 0.0 0.00 0.00 0.00 76 1002.8
20260506041133 2 315 0.0 0.0 0.00 0.00 0.00 76 1002.8
20260506040633 1 315 0.0 0.0 0.00 0.00 0.00 77 1002.9
20260506040133 1 315 0.0 0.0 0.00 0.00 0.00 77 1002.8
20260506035633 1 315 0.0 0.0 0.00 0.00 0.00 77 1002.7
20260506035133 1 292 0.0 0.0 0.00 0.00 0.00 77 1002.7
20260506034633 1 292 0.0 0.0 0.00 0.00 0.00 77 1002.7
20260506034133 0 292 0.0 0.0 0.00 0.00 0.00 77 1002.7
20260506033633 0 292 0.0 0.0 0.00 0.00 0.00 77 1002.6
20260506033133 0 292 0.0 0.0 0.00 0.00 0.00 77 1002.5
20260506032633 0 292 0.0 0.0 0.00 0.00 0.00 77 1002.6
20260506032133 0 292 0.0 0.0 0.00 0.00 0.00 77 1002.5
20260506031633 0 292 0.0 0.0 0.00 0.00 0.00 77 1002.5
20260506031133 0 292 0.0 0.0 0.00 0.00 0.00 77 1002.4
20260506030633 0 292 0.0 0.0 0.00 0.00 0.00 77 1002.4
20260506030133 0 292 0.0 0.0 0.00 0.00 0.00 77 1002.3
20260506025633 0 292 0.0 0.0 0.00 0.00 0.00 77 1002.3
20260506025133 0 292 0.0 0.0 0.00 0.00 0.00 77 1002.3
20260506024633 0 292 0.0 0.0 0.00 0.00 0.00 77 1002.2
20260506024133 0 292 0.0 0.0 0.00 0.00 0.00 77 1002.0
20260506023633 -1 292 0.0 0.0 0.00 0.00 0.00 77 1002.0
20260506023133 0 292 0.0 0.0 0.00 0.00 0.00 77 1002.0
20260506022633 -1 292 0.0 0.0 0.00 0.00 0.00 76 1002.0
20260506022133 -1 292 0.0 0.0 0.00 0.00 0.00 76 1001.9
20260506021633 -1 292 0.0 0.0 0.00 0.00 0.00 76 1001.8
20260506021133 -1 292 0.0 0.0 0.00 0.00 0.00 76 1001.8
20260506020633 -1 292 0.0 0.0 0.00 0.00 0.00 75 1001.7
20260506020133 0 292 0.0 0.0 0.00 0.00 0.00 75 1001.7
20260506015633 0 292 0.0 0.0 0.00 0.00 0.00 75 1001.8
20260506015133 0 292 0.0 0.0 0.00 0.00 0.00 75 1001.6
20260506014633 0 292 0.0 0.0 0.00 0.00 0.00 75 1001.6
20260506014133 0 292 0.0 0.0 0.00 0.00 0.00 75 1001.6
20260506013633 0 292 0.0 0.0 0.00 0.00 0.00 75 1001.6
20260506013133 0 292 0.0 0.0 0.00 0.00 0.00 74 1001.6
20260506012633 0 292 0.0 0.0 0.00 0.00 0.00 74 1001.6
20260506012133 0 292 0.0 0.0 0.00 0.00 0.00 74 1001.6
20260506011633 0 292 0.0 0.0 0.00 0.00 0.00 74 1001.6
20260506011133 0 292 0.0 0.0 0.00 0.00 0.00 74 1001.5
20260506010633 0 292 0.0 0.0 0.00 0.00 0.00 74 1001.4
20260506010133 0 292 0.0 0.0 0.00 0.00 0.00 74 1001.4
20260506005633 0 292 0.0 0.0 0.00 0.00 0.00 74 1001.3
20260506005133 0 292 0.0 0.0 0.00 0.00 0.00 73 1001.2
20260506004633 0 292 0.0 0.0 0.00 0.00 0.00 73 1001.2
20260506004133 0 292 0.0 0.0 0.00 0.00 0.00 72 1001.1
20260506003633 0 292 0.0 0.0 0.00 0.00 0.00 72 1001.2
20260506003133 0 292 0.0 0.0 0.00 0.00 0.00 72 1001.1
20260506002633 0 292 0.0 0.0 0.00 0.00 0.00 72 1001.1
20260506002133 0 292 0.0 0.0 0.00 0.00 0.00 72 1001.1
20260506001633 0 292 0.0 0.0 0.00 0.00 0.00 72 1001.0
20260506001133 1 292 0.0 0.0 0.00 0.00 0.00 71 1001.1
20260506000633 1 270 0.0 0.0 0.00 0.00 0.00 71 1001.0
20260506000133 1 270 0.0 0.0 0.00 0.00 0.00 71 1001.0
20260505235633 1 270 0.0 0.0 0.00 0.00 0.00 70 1001.1
20260505235133 1 270 0.0 0.0 0.00 0.00 0.00 70 1000.8
20260505234633 1 270 0.0 0.0 0.00 0.00 0.00 70 1000.8
20260505234133 1 270 0.0 0.0 0.00 0.00 0.00 70 1000.8
20260505233633 1 270 0.0 0.0 0.00 0.00 0.00 69 1000.7
20260505233133 1 270 0.0 0.0 0.00 0.00 0.00 69 1000.7
20260505232633 1 247 0.0 0.0 0.00 0.00 0.00 69 1000.6
20260505232134 1 292 0.0 0.0 0.00 0.00 0.00 69 1000.6
20260505231633 1 292 0.0 0.0 0.00 0.00 0.00 69 1000.7
20260505231133 1 315 0.0 0.0 0.00 0.00 0.00 68 1000.6
20260505230634 1 315 0.0 0.0 0.00 0.00 0.00 68 1000.6
20260505230134 1 315 0.0 0.0 0.00 0.00 0.00 68 1000.5
20260505225634 1 315 0.0 0.0 0.00 0.00 0.00 67 1000.4
20260505225134 1 315 0.0 0.0 0.00 0.00 0.00 67 1000.5
20260505224634 1 315 0.0 0.0 0.00 0.00 0.00 67 1000.4
20260505224134 2 315 0.0 0.0 0.00 0.00 0.00 67 1000.4
20260505223634 2 315 0.0 0.0 0.00 0.00 0.00 66 1000.3
20260505223134 2 315 0.0 0.0 0.00 0.00 0.00 66 1000.4
20260505222634 2 315 0.0 0.0 0.00 0.00 0.00 66 1000.3
20260505222134 2 315 0.0 0.0 0.00 0.00 0.00 65 1000.3
20260505221634 2 315 0.0 0.0 0.00 0.00 0.00 65 1000.3
20260505221134 2 315 0.0 0.0 0.00 0.00 0.00 65 1000.1
20260505220634 2 315 0.0 0.0 0.00 0.00 0.00 65 1000.2
20260505220134 2 315 0.0 0.0 0.00 0.00 0.00 64 1000.3
20260505215634 2 315 0.0 0.0 0.00 0.00 0.00 63 1000.2
20260505215134 2 315 0.0 0.0 0.00 0.00 0.00 63 1000.2
20260505214634 2 292 0.0 0.0 0.00 0.00 0.00 62 1000.1
20260505214134 2 292 0.0 0.0 0.00 0.00 0.00 62 1000.1
20260505213634 2 292 0.0 0.0 0.00 0.00 0.00 61 1000.1
20260505213134 3 292 0.0 0.0 0.00 0.00 0.00 61 999.9
20260505212634 3 292 0.0 0.0 0.00 0.00 0.00 61 999.9
20260505212134 3 292 0.0 0.0 0.00 0.00 0.00 60 999.9
20260505211634 3 315 0.0 0.0 0.00 0.00 0.00 60 999.8
20260505211134 3 315 0.0 0.0 0.00 0.00 0.00 59 999.8
20260505210634 3 315 0.0 0.0 0.00 0.00 0.00 59 999.8
20260505210134 3 292 0.0 0.0 0.00 0.00 0.00 59 999.7
20260505205634 3 315 0.0 0.0 0.00 0.00 0.00 58 999.6
20260505205134 3 292 0.0 0.0 0.00 0.00 0.00 58 999.6
20260505204634 3 315 0.0 0.0 0.00 0.00 0.00 57 999.5
20260505204134 3 315 0.0 0.0 0.00 0.00 0.00 57 999.3
20260505203634 3 292 0.0 0.0 0.00 0.00 0.00 56 999.4
20260505203134 3 292 0.0 0.0 0.00 0.00 0.00 56 999.1
20260505202634 4 292 0.0 0.0 0.00 0.00 0.00 56 999.3
20260505202134 4 292 0.0 0.0 0.00 0.00 0.00 55 999.1
20260505201634 4 270 0.0 0.0 0.00 0.00 0.00 55 999.1
20260505201134 4 292 0.0 0.0 0.00 0.00 0.00 55 999.0
20260505200634 4 292 0.0 0.0 0.00 0.00 0.00 54 998.9
20260505200134 5 292 0.0 0.0 0.00 0.00 0.00 54 998.8
20260505195634 5 292 0.0 0.0 0.00 0.00 0.00 53 998.8
20260505195134 5 292 0.0 0.0 0.00 0.00 0.00 53 998.8
20260505194634 5 315 0.0 0.0 0.00 0.00 0.00 52 998.7
20260505194134 5 292 0.0 0.0 0.00 0.00 0.00 52 998.7
20260505193634 5 292 0.0 0.0 0.00 0.00 0.00 51 998.7
20260505193134 5 337 0.0 0.0 0.00 0.00 0.00 51 998.7
20260505192634 5 315 0.0 0.0 0.00 0.00 0.00 50 998.7
20260505192134 5 315 0.0 0.0 0.00 0.00 0.00 49 998.7
20260505191634 5 315 0.0 0.0 0.00 0.00 0.00 49 998.6
20260505191134 5 292 0.0 0.0 0.00 0.00 0.00 49 998.6
20260505190634 5 292 0.0 0.0 0.00 0.00 0.00 48 998.5
20260505190134 5 292 0.0 0.0 0.00 0.00 0.00 47 998.5
20260505185634 6 270 0.0 0.0 0.00 0.00 0.00 47 998.5
20260505185134 6 292 0.0 0.0 0.00 0.00 0.00 46 998.4
20260505184634 6 270 0.0 0.0 0.00 0.00 0.00 46 998.4
20260505184134 6 292 0.0 0.0 0.00 0.00 0.00 46 998.3
20260505183634 6 315 0.0 8.0 0.00 0.00 0.00 46 998.3
20260505183134 6 270 0.0 0.0 0.00 0.00 0.00 45 998.2
20260505182634 6 292 0.0 3.2 0.00 0.00 0.00 45 998.0
20260505182134 7 315 0.0 6.4 0.00 0.00 0.00 45 998.0
20260505181634 7 315 0.0 0.0 0.00 0.00 0.00 44 998.0
20260505181134 7 315 0.0 0.0 0.00 0.00 0.00 44 997.9
20260505180634 7 270 0.0 0.0 0.00 0.00 0.00 44 997.9
20260505180134 7 292 0.0 0.0 0.00 0.00 0.00 43 997.8
20260505175634 7 292 0.0 0.0 0.00 0.00 0.00 42 997.7
20260505175134 7 292 0.0 0.0 0.00 0.00 0.00 42 997.7
20260505174634 8 315 0.0 6.4 0.00 0.00 0.00 41 997.6
20260505174134 8 292 0.0 9.7 0.00 0.00 0.00 41 997.6
20260505173634 8 337 0.0 8.0 0.00 0.00 0.00 41 997.6
20260505173134 8 292 0.0 12.9 0.00 0.00 0.00 41 997.5
20260505172634 8 315 0.0 11.3 0.00 0.00 0.00 40 997.5
20260505172134 9 292 0.0 0.0 0.00 0.00 0.00 40 997.5
20260505171635 9 225 0.0 0.0 0.00 0.00 0.00 39 997.4
20260505171135 10 337 0.0 3.2 0.00 0.00 0.00 38 997.5
20260505170635 10 315 0.0 4.8 0.00 0.00 0.00 37 997.5
20260505170135 10 315 0.0 4.8 0.00 0.00 0.00 36 997.5
20260505165635 11 270 0.0 6.4 0.00 0.00 0.00 35 997.3
20260505165135 12 270 0.0 8.0 0.00 0.00 0.00 34 997.4
20260505164635 12 270 0.0 6.4 0.00 0.00 0.00 33 997.2
20260505164135 12 292 0.0 8.0 0.00 0.00 0.00 32 997.2
20260505163635 12 270 0.0 6.4 0.00 0.00 0.00 32 997.3
20260505163135 12 247 0.0 8.0 0.00 0.00 0.00 32 997.2
20260505162635 12 270 0.0 6.4 0.00 0.00 0.00 31 997.1
20260505162135 13 292 0.0 4.8 0.00 0.00 0.00 30 997.3
20260505161635 14 270 0.0 3.2 0.00 0.00 0.00 29 997.3
20260505161135 16 315 0.0 8.0 0.00 0.00 0.00 27 997.2
20260505160635 17 225 0.0 3.2 0.00 0.00 0.00 25 997.1
20260505160135 18 315 0.0 8.0 0.00 0.00 0.00 24 997.1
20260505153135 20 315 0.0 4.8 0.00 0.00 0.00 25 996.8
20260505152635 18 315 0.0 4.8 0.00 0.00 0.00 26 996.8
20260505152135 20 270 0.0 4.8 0.00 0.00 0.00 24 996.8
20260505151635 21 292 0.0 9.7 0.00 0.00 0.00 23 996.8
20260505151135 21 315 0.0 12.9 0.00 0.00 0.00 23 996.8
20260505150635 22 270 0.0 9.7 0.00 0.00 0.00 24 996.8
20260505150135 22 292 0.0 4.8 0.00 0.00 0.00 25 996.7
20260505140635 16 292 0.0 0.0 0.00 0.00 0.00 33 996.6
20260505140135 15 247 0.0 0.0 0.00 0.00 0.00 34 996.5
20260505130135 17 337 8.0 9.7 0.00 0.00 0.00 31 996.4
20260505124635 19 247 0.0 6.4 0.00 0.00 0.00 30 996.3
20260505124135 19 315 0.0 8.0 0.00 0.00 0.00 31 996.3
20260505123635 20 315 0.0 1.6 0.00 0.00 0.00 30 996.1
20260505123135 20 337 0.0 8.0 0.00 0.00 0.00 31 996.1
20260505122635 19 315 6.4 6.4 0.00 0.00 0.00 32 996.2
20260505122135 18 315 0.0 8.0 0.00 0.00 0.00 33 996.1
20260505121635 17 292 0.0 0.0 0.00 0.00 0.00 33 996.0
20260505121135 17 247 0.0 0.0 0.00 0.00 0.00 34 995.9
20260505120635 18 292 0.0 6.4 0.00 0.00 0.00 32 995.8
20260505120135 18 292 0.0 4.8 0.00 0.00 0.00 33 995.8
20260505115635 19 292 0.0 4.8 0.00 0.00 0.00 33 995.8
20260505115135 18 270 4.8 14.5 0.00 0.00 0.00 33 995.6
20260505114635 18 270 6.4 8.0 0.00 0.00 0.00 33 995.6
20260505114135 18 315 6.4 6.4 0.00 0.00 0.00 33 995.6
20260505113635 18 315 0.0 9.7 0.00 0.00 0.00 32 995.5
20260505113135 18 315 0.0 3.2 0.00 0.00 0.00 33 995.3
20260505112636 17 292 0.0 1.6 0.00 0.00 0.00 33 995.3
20260505112136 17 270 0.0 16.1 0.00 0.00 0.00 34 995.2
20260505111635 16 337 16.1 16.1 0.00 0.00 0.00 34 995.2
20260505111136 17 337 0.0 3.2 0.00 0.00 0.00 34 995.2
20260505110636 17 337 0.0 9.7 0.00 0.00 0.00 32 995.2
20260505110136 20 292 1.6 11.3 0.00 0.00 0.00 32 994.9